Погода в Антонинах

Украина / Хмельницкая область     49°48′29″N   26°52′00″E
темп.,
°C
ветер,
м/с
пор.,
м/с
влажн.,
%
обл.,
%
осадки,
мм/ч
давл.,
гПа
погр.,
м
19 сентября, вс
вс1900:00+12зюз2692100 0.3 1008492
03:00+11зюз4109598 0.9 1008644
06:00+9зсз3794100 1.6 1007418
09:00+8з5892100 4.0 1008942
12:00+7з5889100 0.6 1009971
15:00+6з6890100 0.9 1010997
18:00+7з6990100 1.0 10101214
21:00+5з6994100 1.3 1010973
20 сентября, пн
пн2000:00+5з61095100 0.4 1011915
03:00+6з71095100 0.6 1010826
06:00+6зсз71196100 0.1 1011646
09:00+6зсз61095100 0.3 1012676
12:00+5зсз61093100 0.1 1014768
15:00+6зсз6984100 0.1 10141023
18:00+6зсз61086100 0.1 1015819
21:00+5зсз61188100 0.1 1016848
21 сентября, вт
вт2100:00+5зсз71190100 0.1 10171101
03:00+4зсз71196100 0.2 1018823
06:00+4зсз71296100 0.4 1018781
09:00+4зсз71190100 0.5 1020912
12:00+5зсз71084100 0.1 1020972
15:00+6сз71078100 0.1 10211007
18:00+5сз61186100 0.0 1022910
21:00+5сз61088100 0.1 1023953
22 сентября, ср
ср2200:00+5сз51086100 0.1 1022813
03:00+6зсз5985100 0.1 1021999
06:00+5сз71285100 0.1 1021921
09:00+6сз51082100 0.2 1021952
12:00+10сз6858100 0.0 10191474
15:00+10сз6952100 0.1 10181780
18:00+10ссз6951100 0.1 10181378
21:00+6с3775100 0.1 1019321
23 сентября, чт
чт2300:00+6сз4885100 0.2 1018782
03:00+5сз4685100 0.4 1017720
06:00+5сз4686100 0.1 1017795
09:00+6сз4681100 0.2 1017920
12:00+6сз358598 0.2 1017656
15:00+9зсз356797 0.3 10161050
18:00+11зсз3560100 0.0 1014428
21:00+9зюз4890100 0.1 1015448